[[{"header":{"parameterUnit":"m.s-1","parameterCategory":1,"la1":30.2991,"la2":30.254,"lo1":-89.0895,"lo2":-89.0444,"dy":0.0017,"dx":0.0017,"nx":28,"ny":28,"refTime":"2025-12-06T03:00:00:Z","depth":0,"parameterNumber":2,"parameterNumberName":"U-component_of_WINDS"},"data":[0,0,0,0,0,0,0,0,0,0,0,0,0,0,0,0,0,0,0,0,0,0,0,0,0,0,0,0,0,0,0,0,0,0,0,0,0,0,0,0,0,0,0,0,0,0,0,0,0,0,0,0,0,0,0,0,0,0,-1.536,-1.5361,0,-1.5487,-1.5488,-1.549,-1.5483,-1.5481,-1.5479,-1.5477,-1.5609,-1.5614,-1.5619,0,0,0,0,0,0,0,0,0,0,0,0,0,-1.5114,-1.5118,-1.536,-1.5362,-1.5363,-1.5486,-1.5488,-1.549,-1.5483,-1.5481,-1.5479,-1.5477,-1.5607,-1.5613,-1.5619,0,0,0,0,0,0,0,0,0,0,0,0,0,-1.5228,-1.512,-1.536,-1.5375,-1.5377,-1.5486,-1.5488,-1.549,-1.5484,-1.5481,-1.5478,-1.5475,-1.5605,-1.5613,-1.562,-1.5723,0,0,-1.5644,-1.5648,0,0,0,0,0,0,0,0,-1.5222,-1.5237,-1.5371,-1.5374,-1.5377,-1.5466,-1.5449,-1.5569,-1.5484,-1.5443,-1.5477,-1.5474,-1.5564,-1.5575,-1.5605,-1.573,-1.5735,-1.5645,-1.565,-1.5653,-1.5655,0,0,0,0,0,0,0,-1.5214,-1.5232,-1.541,-1.5373,-1.5376,-1.5375,-1.5389,-1.5472,-1.5517,-1.5447,-1.5446,-1.5461,-1.5565,-1.5597,-1.5608,-1.5737,-1.5645,-1.5652,-1.5656,-1.5659,-1.5953,-1.5956,0,0,0,0,0,0,-1.5203,-1.5225,-1.5406,-1.5414,-1.5291,-1.5382,-1.5397,-1.544,-1.5516,-1.5525,-1.5464,-1.5461,-1.5585,-1.5598,-1.5612,-1.5739,-1.5653,-1.566,-1.5665,-1.595,-1.5954,-1.5957,0,0,0,0,0,0,-1.5197,-1.5219,-1.5401,-1.532,-1.5343,-1.5389,-1.5438,-1.5444,-1.5476,-1.5529,-1.5537,-1.5488,-1.5583,-1.5601,-1.5696,-1.5743,-1.5664,-1.5671,-1.5947,-1.5951,-1.5956,-1.5992,0,0,0,0,0,0,-1.519,-1.5217,-1.5256,-1.5321,-1.5347,-1.5482,-1.5441,-1.5449,-1.549,-1.5487,-1.5554,-1.5563,-1.5583,-1.5684,-1.5703,-1.5752,-1.5677,-1.5943,-1.5949,-1.5954,-1.5987,-1.5997,-1.6006,0,0,0,0,0,-1.5181,-1.5262,-1.5258,-1.528,-1.5397,-1.5485,-1.55,-1.5521,-1.5493,-1.5534,-1.5568,-1.5561,-1.5734,-1.5694,-1.5716,-1.5768,-1.594,-1.5947,-1.5954,-1.5982,-1.5995,-1.6006,0,0,0,0,0,0,-1.5203,-1.527,-1.5268,-1.5371,-1.5422,-1.5484,-1.5535,-1.5534,-1.5594,-1.5589,-1.5612,-1.5628,-1.5723,-1.5754,-1.5708,-1.5871,-1.5833,-1.5845,-1.5848,-1.586,-1.587,-1.5861,-1.5683,0,0,0,0,0,-1.5219,-1.5284,-1.534,-1.5426,-1.5452,-1.5489,-1.5528,-1.5539,-1.5593,-1.5615,-1.5656,-1.571,-1.5776,-1.582,-1.5884,-1.599,-1.6005,-1.6037,-1.6046,-1.6054,-1.6065,-1.6124,-1.6139,-1.598,-1.598,-1.598,0,0,-1.5255,-1.5299,-1.5339,-1.5431,-1.5472,-1.554,-1.5507,-1.558,-1.5631,-1.5627,-1.5719,-1.575,-1.5811,-1.5912,-1.5959,-1.5942,-1.6111,-1.6063,-1.6069,-1.6075,-1.6133,-1.6148,-1.6161,-1.5985,-1.5984,-1.5984,0,0,-1.5354,-1.5394,-1.547,-1.5511,-1.5574,-1.5598,-1.5616,-1.5678,-1.5699,-1.5791,-1.5789,-1.5849,-1.5963,-1.6007,-1.6044,-1.6159,-1.6155,-1.6179,-1.6231,-1.6288,-1.6301,-1.6312,-1.6354,-1.6369,-1.6189,-1.6189,-1.6189,0,-1.539,-1.5491,-1.551,-1.5583,-1.5624,-1.5622,-1.57,-1.5739,-1.5819,-1.5848,-1.5827,-1.597,-1.601,-1.6122,-1.615,-1.618,-1.6202,-1.6172,-1.6297,-1.6309,-1.632,-1.636,-1.6376,-1.6191,-1.6191,-1.6191,-1.6191,0,-1.5533,-1.5604,-1.5658,-1.5735,-1.5781,-1.5856,-1.5887,-1.5932,-1.5938,-1.5964,-1.6059,-1.6107,-1.6181,-1.6208,-1.6216,-1.6321,-1.6309,-1.6292,-1.6255,-1.6337,-1.6375,-1.6391,-1.6195,-1.6194,-1.6193,-1.6193,0,0,-1.5652,-1.5737,-1.5757,-1.5792,-1.5859,-1.5914,-1.5989,-1.6061,-1.61,-1.6154,-1.6219,-1.6314,-1.6299,-1.6342,-1.6354,-1.6404,-1.6493,-1.6381,-1.6383,-1.6402,-1.6613,-1.6627,-1.6644,-1.649,-1.6493,-1.6495,-1.6608,0,-1.5759,-1.5892,-1.591,-1.6028,-1.6093,-1.6092,-1.6157,-1.6206,-1.6232,-1.6292,-1.632,-1.6389,-1.6363,-1.6388,-1.6438,-1.6471,-1.6536,-1.6463,-1.6551,-1.6554,-1.6537,-1.6664,-1.6679,-1.6784,-1.6623,-1.6626,-1.6628,0,-1.5903,-1.5961,-1.6085,-1.6144,-1.6172,-1.6231,-1.6298,-1.6354,-1.641,-1.6425,-1.6472,-1.6477,-1.6555,-1.6513,-1.6621,-1.6571,-1.6608,-1.6629,-1.6634,-1.6645,-1.6597,-1.668,-1.6817,-1.6834,-1.6651,-1.665,-1.6648,0,-1.5978,-1.6088,-1.6176,-1.6206,-1.6277,-1.6318,-1.6349,-1.6402,-1.6444,-1.6502,-1.653,-1.6596,-1.6634,-1.6685,-1.6709,-1.6676,-1.6816,-1.6776,-1.6832,-1.6832,-1.6864,-1.6862,-1.7011,-1.6884,-1.6884,-1.6884,-1.6883,0,-1.6098,-1.6174,-1.6211,-1.6266,-1.6352,-1.6371,-1.6456,-1.6485,-1.6532,-1.6593,-1.6595,-1.6652,-1.6679,-1.674,-1.6758,-1.6846,-1.6862,-1.6878,-1.6882,-1.6879,-1.6877,-1.6905,-1.6899,-1.6888,-1.6887,-1.6886,-1.6885,0,-1.6198,-1.6226,-1.6322,-1.6381,-1.6397,-1.6458,-1.6508,-1.6561,-1.6586,-1.6663,-1.6682,-1.6721,-1.6793,-1.6821,-1.6909,-1.6922,-1.7023,-1.7021,-1.7005,-1.7006,-1.7062,-1.7057,-1.7236,-1.7261,-1.7115,-1.7117,-1.7118,0,-1.6273,-1.6332,-1.6396,-1.6437,-1.6469,-1.6535,-1.6577,-1.6598,-1.6643,-1.671,-1.6755,-1.6826,-1.6885,-1.7,-1.7037,-1.7105,-1.7105,-1.7163,-1.7116,-1.711,-1.7108,-1.7105,-1.7112,-1.7173,-1.7174,-1.7175,-1.7176,0,-1.6405,-1.6415,-1.6476,-1.6542,-1.6593,-1.6646,-1.6697,-1.6731,-1.6759,-1.6809,-1.6883,-1.6928,-1.7017,-1.7089,-1.7158,-1.7191,-1.7189,-1.719,-1.7208,-1.7206,-1.7195,-1.7203,-1.7031,-1.7187,-1.7186,-1.7185,-1.7185,-1.7184,-1.6496,-1.6548,-1.6602,-1.667,-1.671,-1.6758,-1.6811,-1.6842,-1.6904,-1.6978,-1.6986,-1.7065,-1.7119,-1.7211,-1.7247,-1.7309,-1.7294,-1.7318,-1.7325,-1.7331,-1.7335,-1.7183,-1.7321,-1.7321,-1.7321,-1.7321,-1.732,0,-1.6629,-1.6663,-1.6725,-1.6797,-1.685,-1.6842,-1.6899,-1.6944,-1.7014,-1.7063,-1.712,-1.7205,-1.7274,-1.7315,-1.7385,-1.7427,-1.7428,-1.7444,-1.7443,-1.745,-1.7344,-1.7323,-1.7442,-1.7442,-1.7442,-1.7442,-1.7442,-1.7442,-1.6705,-1.6793,-1.681,-1.6918,-1.6951,-1.7028,-1.7061,-1.7106,-1.7145,-1.7239,-1.7297,-1.7323,-1.7369,-1.7442,-1.7505,-1.7515,-1.7541,-1.756,-1.7569,-1.747,-1.7458,-1.7446,-1.7426,-1.7565,-1.7565,-1.767,-1.7671,-1.7672]},{"header":{"parameterUnit":"m.s-1","parameterCategory":1,"la1":30.2991,"la2":30.254,"lo1":-89.0895,"lo2":-89.0444,"dy":0.0017,"dx":0.0017,"nx":28,"ny":28,"refTime":"2025-12-06T03:00:00:Z","depth":0,"parameterNumber":3,"parameterNumberName":"V-component_of_WINDS"},"data":[0,0,0,0,0,0,0,0,0,0,0,0,0,0,0,0,0,0,0,0,0,0,0,0,0,0,0,0,0,0,0,0,0,0,0,0,0,0,0,0,0,0,0,0,0,0,0,0,0,0,0,0,0,0,0,0,0,0,-4.5885,-4.5885,0,-4.5937,-4.5938,-4.5938,-4.5883,-4.5881,-4.5879,-4.5877,-4.5926,-4.593,-4.5933,0,0,0,0,0,0,0,0,0,0,0,0,0,-4.5731,-4.5734,-4.5884,-4.5885,-4.5886,-4.5937,-4.5938,-4.5939,-4.5884,-4.5881,-4.5879,-4.5876,-4.5925,-4.5929,-4.5933,0,0,0,0,0,0,0,0,0,0,0,0,0,-4.5792,-4.5735,-4.5884,-4.5865,-4.5864,-4.5937,-4.5938,-4.5939,-4.5884,-4.5881,-4.5878,-4.5875,-4.5924,-4.5929,-4.5934,-4.6028,0,0,-4.5949,-4.5951,0,0,0,0,0,0,0,0,-4.5788,-4.5797,-4.5867,-4.5866,-4.5865,-4.5901,-4.5902,-4.5968,-4.5885,-4.5876,-4.5877,-4.5873,-4.592,-4.5925,-4.5942,-4.603,-4.6032,-4.5949,-4.5952,-4.5954,-4.5956,0,0,0,0,0,0,0,-4.5784,-4.5795,-4.5905,-4.5868,-4.5867,-4.5851,-4.5857,-4.5914,-4.5915,-4.5877,-4.5873,-4.588,-4.5919,-4.5937,-4.5943,-4.6033,-4.5949,-4.5953,-4.5957,-4.5958,-4.6199,-4.6202,0,0,0,0,0,0,-4.5783,-4.5792,-4.5903,-4.5907,-4.5818,-4.5857,-4.5863,-4.5892,-4.5914,-4.5915,-4.5883,-4.5877,-4.593,-4.5937,-4.5944,-4.6054,-4.5954,-4.5959,-4.5962,-4.6195,-4.6199,-4.6203,0,0,0,0,0,0,-4.578,-4.5793,-4.5901,-4.5848,-4.5861,-4.5863,-4.5897,-4.5895,-4.5913,-4.5919,-4.5918,-4.5902,-4.5928,-4.5937,-4.6007,-4.6055,-4.5961,-4.5966,-4.6191,-4.6196,-4.6201,-4.6277,0,0,0,0,0,0,-4.5776,-4.5793,-4.583,-4.585,-4.5864,-4.5966,-4.59,-4.5898,-4.5923,-4.5916,-4.5937,-4.5937,-4.5926,-4.6,-4.6012,-4.6061,-4.5969,-4.6187,-4.6194,-4.62,-4.627,-4.6284,-4.6296,0,0,0,0,0,-4.577,-4.5848,-4.5832,-4.5846,-4.5911,-4.5969,-4.5976,-4.5964,-4.5927,-4.5963,-4.5966,-4.5936,-4.6048,-4.6008,-4.6021,-4.6071,-4.6184,-4.6192,-4.6199,-4.6264,-4.6281,-4.6295,0,0,0,0,0,0,-4.5833,-4.5851,-4.5833,-4.592,-4.5943,-4.5959,-4.6005,-4.5983,-4.6016,-4.6008,-4.599,-4.5995,-4.6069,-4.6077,-4.6032,-4.6162,-4.611,-4.612,-4.6155,-4.6171,-4.6183,-4.618,-4.5974,0,0,0,0,0,-4.5857,-4.5904,-4.5916,-4.5992,-4.6005,-4.6003,-4.6027,-4.6016,-4.6039,-4.6048,-4.6056,-4.6079,-4.6118,-4.6145,-4.6182,-4.6271,-4.6274,-4.6312,-4.6325,-4.6335,-4.6344,-4.639,-4.6407,-4.6228,-4.6228,-4.6228,0,0,-4.5906,-4.5922,-4.5953,-4.6005,-4.6021,-4.6069,-4.6011,-4.6064,-4.6099,-4.6055,-4.6122,-4.6129,-4.6152,-4.6232,-4.6267,-4.6241,-4.6394,-4.6345,-4.6353,-4.6357,-4.64,-4.6417,-4.6432,-4.6234,-4.6233,-4.6232,0,0,-4.6021,-4.6039,-4.6103,-4.6121,-4.6148,-4.6146,-4.6161,-4.6181,-4.6184,-4.6251,-4.6219,-4.6259,-4.6329,-4.6346,-4.6364,-4.6485,-4.6458,-4.6497,-4.6564,-4.6609,-4.6623,-4.6636,-4.6677,-4.6693,-4.6506,-4.6507,-4.6507,0,-4.6079,-4.6151,-4.6138,-4.6194,-4.6216,-4.6181,-4.6244,-4.6262,-4.6299,-4.6315,-4.6285,-4.6371,-4.6384,-4.6466,-4.6496,-4.6512,-4.6528,-4.6495,-4.6623,-4.6635,-4.6646,-4.6686,-4.6702,-4.6511,-4.6511,-4.651,-4.651,0,-4.6221,-4.6271,-4.6319,-4.6357,-4.6385,-4.6445,-4.6439,-4.6468,-4.6454,-4.6455,-4.6523,-4.6537,-4.6576,-4.6595,-4.6581,-4.6675,-4.6658,-4.6626,-4.6572,-4.6668,-4.6705,-4.672,-4.6518,-4.6516,-4.6515,-4.6514,0,0,-4.6376,-4.6406,-4.6424,-4.644,-4.6467,-4.6504,-4.6561,-4.66,-4.6626,-4.6652,-4.6698,-4.6757,-4.6728,-4.6748,-4.6736,-4.6775,-4.6868,-4.6738,-4.6738,-4.6761,-4.6971,-4.6994,-4.7012,-4.6851,-4.6854,-4.6856,-4.6969,0,-4.6491,-4.6591,-4.6581,-4.6675,-4.672,-4.6687,-4.6736,-4.6756,-4.6758,-4.6795,-4.6796,-4.6839,-4.6797,-4.6809,-4.6847,-4.6849,-4.691,-4.6841,-4.6892,-4.6894,-4.6886,-4.7032,-4.7057,-4.7163,-4.6983,-4.6986,-4.6988,0,-4.6639,-4.6671,-4.6771,-4.679,-4.6808,-4.6853,-4.6887,-4.6924,-4.6945,-4.6944,-4.6967,-4.6947,-4.7002,-4.6948,-4.7022,-4.6975,-4.6995,-4.6999,-4.7003,-4.7006,-4.6946,-4.7038,-4.7196,-4.7212,-4.701,-4.7008,-4.7007,0,-4.6741,-4.681,-4.6878,-4.6893,-4.6917,-4.6949,-4.6959,-4.6978,-4.7002,-4.7032,-4.7047,-4.7082,-4.7101,-4.7128,-4.7118,-4.7079,-4.7193,-4.7139,-4.7192,-4.7192,-4.7217,-4.7215,-4.738,-4.7231,-4.7231,-4.7231,-4.7231,0,-4.687,-4.6932,-4.6924,-4.6966,-4.7034,-4.702,-4.7087,-4.7093,-4.711,-4.7151,-4.7123,-4.7162,-4.7147,-4.7184,-4.7176,-4.7238,-4.7247,-4.7245,-4.7242,-4.7248,-4.7248,-4.726,-4.7252,-4.7235,-4.7234,-4.7233,-4.7233,0,-4.6995,-4.6993,-4.7065,-4.7082,-4.7087,-4.7136,-4.7149,-4.7188,-4.7187,-4.724,-4.7251,-4.725,-4.7292,-4.7285,-4.7331,-4.7325,-4.7403,-4.7391,-4.7396,-4.7393,-4.7446,-4.7441,-4.7623,-4.7646,-4.7484,-4.7486,-4.7487,0,-4.7077,-4.7124,-4.7146,-4.7173,-4.7186,-4.7229,-4.7253,-4.7241,-4.7267,-4.7295,-4.733,-4.737,-4.7401,-4.747,-4.7472,-4.7507,-4.7495,-4.7557,-4.75,-4.7504,-4.7495,-4.7492,-4.7496,-4.7568,-4.757,-4.7571,-4.7572,0,-4.7223,-4.7219,-4.7257,-4.7294,-4.7324,-4.7352,-4.7377,-4.74,-4.7389,-4.742,-4.7464,-4.7488,-4.7536,-4.7575,-4.7608,-4.7617,-4.7593,-4.759,-4.7604,-4.7609,-4.761,-4.7609,-4.7425,-4.7586,-4.7584,-4.7583,-4.7583,-4.7582,-4.7328,-4.7368,-4.739,-4.7432,-4.745,-4.7474,-4.751,-4.7515,-4.7552,-4.759,-4.758,-4.7629,-4.7648,-4.7689,-4.7702,-4.7739,-4.7716,-4.7737,-4.7742,-4.7747,-4.7753,-4.7605,-4.7745,-4.7745,-4.7744,-4.7744,-4.7744,0,-4.7471,-4.7484,-4.7523,-4.7559,-4.7592,-4.7568,-4.7594,-4.7622,-4.7667,-4.7687,-4.7719,-4.7768,-4.7806,-4.7811,-4.7847,-4.7875,-4.7865,-4.7885,-4.7882,-4.7884,-4.7772,-4.7756,-4.7893,-4.7893,-4.7892,-4.7892,-4.7892,-4.7892,-4.755,-4.7615,-4.7614,-4.7688,-4.7699,-4.7748,-4.7765,-4.7786,-4.7802,-4.7859,-4.7891,-4.7895,-4.7909,-4.7945,-4.7978,-4.7978,-4.7992,-4.8016,-4.8012,-4.7907,-4.7892,-4.7878,-4.7863,-4.802,-4.802,-4.8121,-4.8122,-4.8123]}]]